Skip Page Navigation
NASA JPL Caltech
NASA Logo - Jet Propulsion Laboratory + View the NASA Portal
+ Center for Near-Earth Object Studies
JPL Home Earth Solar System Stars & Galaxies Technology
JPL Solar System Dynamics
BODIES ORBITS EPHEMERIDES TOOLS PHYSICAL DATA DISCOVERY FAQ SITE MAP
JPL Small-Body Database Browser
Search: [ help ]  
30070 Thabitpulak (2000 ES84)
Classification: Main-belt Asteroid          SPK-ID: 2030070
Ephemeris | Orbit Diagram | Orbital Elements | Mission Design | Physical Parameters | Discovery Circumstances | Close-Approach Data ]

[ show orbit diagram ]
Orbital Elements at Epoch 2459200.5 (2020-Dec-17.0) TDB
Reference: JPL 29 (heliocentric ecliptic J2000)
 Element Value Uncertainty (1-sigma)   Units 
e .129075821308903 3.6613e-08  
a 2.257718991533963 8.3128e-09 au
q 1.966302058417009 8.3516e-08 au
i 6.530489695440921 4.222e-06 deg
node 205.8440656715301 2.9025e-05 deg
peri 341.9673398885691 3.1993e-05 deg
M 23.1340199403021 1.3797e-05 deg
tp 2459120.874557104608
(2020-Sep-28.37455710)
4.7358e-05 TDB
period 1239.091153042679
3.39
6.8434e-06
1.874e-08
d
yr
n .2905355260716644 1.6046e-09 deg/d
Q 2.549135924650918 9.3858e-09 au
  Orbit Determination Parameters
   # obs. used (total)      1131  
   data-arc span      8937 days (24.47 yr)  
   first obs. used      1995-11-29  
   last obs. used      2020-05-18  
   planetary ephem.      DE441  
   SB-pert. ephem.      SB441-N16  
   condition code      0  
   norm. resid. RMS      .53524  
   source      ORB  
   producer      Otto Matic  
   solution date      2021-Apr-13 06:31:16  

Additional Information
 Earth MOID = .967182 au 
 Jupiter MOID = 2.41205 au 
 T_jup = 3.603 
[ show covariance matrix ]

Ephemeris | Orbit Diagram | Orbital Elements | Mission Design | Physical Parameters | Discovery Circumstances | Close-Approach Data ]

Physical Parameter Table
Parameter Symbol Value Units Sigma Reference Notes
absolute magnitude H 15.71   n/a E2021B10  
diameter diameter 1.783 km 0.180 urn:nasa:pds:neowise_diameters_albedos::2.0[mainbelt] (http://adsabs.harvard.edu/abs/2011ApJ...741...68M)  
geometric albedo albedo 0.320   0.104 urn:nasa:pds:neowise_diameters_albedos::2.0[mainbelt] (http://adsabs.harvard.edu/abs/2011ApJ...741...68M)  

30070 Thabitpulak           Discovered 2000 Mar. 8 by the Lincoln Laboratory Near-Earth Asteroid Research Team at Socorro.
Thabit Pulak (b. 1996) is a finalist in the 2014 Intel STS, and was awarded second place in the 2013 Intel ISEF, for his environmental science project. He attends the Richardson High School, Richardson, Texas.
NOTE: some special characters may not display properly (any characters within {} are an attempt to place the proper accent above a character)
Reference: MPC batch dated 2014-04-15Last Updated: 2014-04-17

[ show close-approach data ]
Alternate Designations
 2000 ES84 = 1997 LY16 = 1998 SN107 
Ephemeris | Orbit Diagram | Orbital Elements | Mission Design | Physical Parameters | Discovery Circumstances | Close-Approach Data ]
ABOUT SSD CREDITS/AWARDS PRIVACY/COPYRIGHT GLOSSARY LINKS
FirstGov 2021-Jun-15 04:21 UT
(server date/time)  
NASA Home Page
Site Manager:   Ryan S. Park
Webmaster  Alan B. Chamberlin